• In Hungary
  • List of Countries
  • For 7 days
  • Water Temperature
  • Satellite Maps
  • Weather Map
  • News
  • Weather Widgets
  • user-avatar
    Login

    Hourly Weather Seli

    Today, 22 September, Saturday

    Time Temperature Precipitation Wind Pressure Humidity
    00:00 +24°C° 0 mm 3 mps 750 mmHg 70%
    01:00 +24°C° 0 mm 3 mps 750 mmHg 69%
    02:00 +24°C° 0 mm 3 mps 749 mmHg 67%
    03:00 +23°C° 0 mm 2 mps 749 mmHg 69%
    04:00 +23°C° 0 mm 2 mps 749 mmHg 72%
    05:00 +23°C° 0 mm 2 mps 749 mmHg 74%
    06:00 +24°C° 0 mm 2 mps 749 mmHg 71%
    07:00 +24°C° 0 mm 2 mps 750 mmHg 68%
    08:00 +25°C° 0 mm 2 mps 750 mmHg 65%
    09:00 +26°C° 0 mm 2 mps 750 mmHg 60%
    10:00 +27°C° 0 mm 2 mps 750 mmHg 54%
    11:00 +29°C° 0 mm 2 mps 750 mmHg 49%
    12:00 +29°C° 0 mm 2 mps 750 mmHg 47%
    13:00 +30°C° 0 mm 3 mps 750 mmHg 45%
    14:00 +30°C° 0 mm 3 mps 750 mmHg 44%
    15:00 +30°C° 0 mm 3 mps 750 mmHg 46%
    16:00 +29°C° 0 mm 3 mps 750 mmHg 48%
    17:00 +29°C° 0 mm 3 mps 750 mmHg 51%
    18:00 +28°C° 0 mm 3 mps 750 mmHg 54%
    19:00 +27°C° 0 mm 2 mps 750 mmHg 57%
    20:00 +26°C° 0 mm 2 mps 750 mmHg 60%
    21:00 +26°C° 0 mm 2 mps 750 mmHg 61%
    22:00 +25°C° 0 mm 2 mps 751 mmHg 61%
    23:00 +25°C° 0 mm 2 mps 751 mmHg 62%

    Tomorrow, 23 September, Sunday

    Time Temperature Precipitation Wind Pressure Humidity
    00:00 +24°C° 0 mm 2 mps 751 mmHg 61%
    01:00 +24°C° 0 mm 2 mps 751 mmHg 60%
    02:00 +24°C° 0 mm 2 mps 751 mmHg 59%
    03:00 +24°C° 0 mm 2 mps 751 mmHg 60%
    04:00 +24°C° 0 mm 2 mps 750 mmHg 60%
    05:00 +24°C° 0 mm 2 mps 750 mmHg 61%
    06:00 +24°C° 0 mm 2 mps 750 mmHg 58%
    07:00 +25°C° 0 mm 2 mps 751 mmHg 56%
    08:00 +26°C° 0 mm 2 mps 751 mmHg 53%
    09:00 +27°C° 0 mm 2 mps 751 mmHg 49%
    10:00 +29°C° 0 mm 2 mps 751 mmHg 44%
    11:00 +30°C° 0 mm 2 mps 752 mmHg 40%
    12:00 +30°C° 0 mm 3 mps 752 mmHg 38%
    13:00 +31°C° 0 mm 3 mps 752 mmHg 37%
    14:00 +33°C° 0 mm 4 mps 751 mmHg 35%
    15:00 +32°C° 0 mm 4 mps 751 mmHg 39%
    16:00 +30°C° 0 mm 3 mps 751 mmHg 42%
    17:00 +30°C° 0 mm 3 mps 751 mmHg 45%
    18:00 +29°C° 0 mm 3 mps 751 mmHg 49%
    19:00 +28°C° 0 mm 3 mps 751 mmHg 54%
    20:00 +27°C° 0 mm 3 mps 751 mmHg 58%
    21:00 +26°C° 0 mm 3 mps 751 mmHg 58%
    22:00 +26°C° 0 mm 3 mps 751 mmHg 59%
    23:00 +25°C° 0 mm 3 mps 751 mmHg 59%

    Day after tomorrow, 24 September, Monday

    Time Temperature Precipitation Wind Pressure Humidity
    00:00 +25°C° 0 mm 3 mps 751 mmHg 58%
    01:00 +25°C° 0 mm 3 mps 751 mmHg 56%
    02:00 +25°C° 0 mm 3 mps 750 mmHg 54%
    03:00 +25°C° 0 mm 3 mps 750 mmHg 55%
    04:00 +25°C° 0 mm 3 mps 750 mmHg 57%
    05:00 +24°C° 0 mm 2 mps 750 mmHg 58%
    06:00 +25°C° 0 mm 2 mps 750 mmHg 55%
    07:00 +26°C° 0 mm 2 mps 750 mmHg 53%
    08:00 +27°C° 0 mm 2 mps 750 mmHg 50%
    09:00 +29°C° 0 mm 2 mps 750 mmHg 44%
    10:00 +30°C° 0 mm 2 mps 750 mmHg 39%
    11:00 +31°C° 0 mm 2 mps 750 mmHg 33%
    12:00 +33°C° 0 mm 3 mps 750 mmHg 33%
    13:00 +33°C° 0 mm 3 mps 749 mmHg 33%
    14:00 +33°C° 0 mm 4 mps 749 mmHg 33%
    15:00 +33°C° 0 mm 4 mps 749 mmHg 35%
    16:00 +32°C° 0 mm 4 mps 749 mmHg 38%
    17:00 +32°C° 0 mm 4 mps 748 mmHg 40%
    18:00 +29°C° 0 mm 4 mps 748 mmHg 45%
    19:00 +28°C° 0 mm 3 mps 748 mmHg 49%
    20:00 +27°C° 0 mm 3 mps 748 mmHg 54%
    21:00 +27°C° 0 mm 3 mps 749 mmHg 51%
    22:00 +26°C° 0 mm 4 mps 749 mmHg 49%
    23:00 +26°C° 0 mm 4 mps 749 mmHg 46%

    25 September, Tuesday

    Time Temperature Precipitation Wind Pressure Humidity
    00:00 +26°C° 0 mm 4 mps 749 mmHg 46%
    01:00 +25°C° 0 mm 4 mps 748 mmHg 46%
    02:00 +25°C° 0 mm 4 mps 748 mmHg 47%
    03:00 +25°C° 0 mm 4 mps 748 mmHg 48%
    04:00 +25°C° 0 mm 3 mps 748 mmHg 49%
    05:00 +24°C° 0 mm 3 mps 748 mmHg 50%
    06:00 +25°C° 0 mm 3 mps 748 mmHg 48%
    07:00 +26°C° 0 mm 3 mps 748 mmHg 46%
    08:00 +27°C° 0 mm 3 mps 748 mmHg 44%
    09:00 +28°C° 0 mm 4 mps 749 mmHg 42%
    10:00 +29°C° 0 mm 5 mps 749 mmHg 41%
    11:00 +30°C° 0 mm 6 mps 749 mmHg 40%
    12:00 +32°C° 0 mm 7 mps 749 mmHg 40%
    13:00 +32°C° 0 mm 8 mps 749 mmHg 40%
    14:00 +33°C° 0 mm 9 mps 749 mmHg 40%
    15:00 +32°C° 0 mm 9 mps 749 mmHg 45%
    16:00 +29°C° 0 mm 10 mps 749 mmHg 51%
    17:00 +28°C° 0 mm 10 mps 749 mmHg 57%
    18:00 +27°C° 0.1 mm 10 mps 750 mmHg 61%
    19:00 +26°C° 0.1 mm 10 mps 750 mmHg 64%
    20:00 +24°C° 0.1 mm 11 mps 751 mmHg 68%
    21:00 +24°C° 0.1 mm 11 mps 751 mmHg 68%
    22:00 +24°C° 0.1 mm 11 mps 751 mmHg 68%
    23:00 +23°C° 0.1 mm 12 mps 751 mmHg 68%

    26 September, Wednesday

    Time Temperature Precipitation Wind Pressure Humidity
    00:00 +23°C° 0.1 mm 12 mps 751 mmHg 67%
    01:00 +23°C° 0.1 mm 13 mps 751 mmHg 66%
    02:00 +23°C° 0.1 mm 13 mps 751 mmHg 66%
    03:00 +22°C° 0 mm 13 mps 751 mmHg 65%
    04:00 +22°C° 0 mm 14 mps 751 mmHg 64%
    05:00 +22°C° 0 mm 14 mps 751 mmHg 63%
    06:00 +22°C° 0 mm 14 mps 752 mmHg 62%
    07:00 +22°C° 0 mm 14 mps 752 mmHg 60%
    08:00 +22°C° 0 mm 15 mps 752 mmHg 58%
    09:00 +23°C° 0 mm 15 mps 752 mmHg 53%
    10:00 +23°C° 0 mm 15 mps 752 mmHg 49%
    11:00 +24°C° 0 mm 15 mps 753 mmHg 45%
    12:00 +24°C° 0 mm 15 mps 752 mmHg 45%
    13:00 +24°C° 0 mm 15 mps 752 mmHg 44%
    14:00 +24°C° 0 mm 15 mps 752 mmHg 44%
    15:00 +23°C° 0.1 mm 15 mps 752 mmHg 47%
    16:00 +22°C° 0.1 mm 15 mps 752 mmHg 50%
    17:00 +20°C° 0.1 mm 15 mps 752 mmHg 53%
    18:00 +19°C° 0.1 mm 15 mps 752 mmHg 54%
    19:00 +19°C° 0.1 mm 15 mps 752 mmHg 56%
    20:00 +18°C° 0.1 mm 16 mps 753 mmHg 58%
    21:00 +18°C° 0.2 mm 16 mps 752 mmHg 58%
    22:00 +18°C° 0.2 mm 16 mps 752 mmHg 59%
    23:00 +16°C° 0.2 mm 16 mps 752 mmHg 60%

    27 September, Thursday

    Time Temperature Precipitation Wind Pressure Humidity
    00:00 +16°C° 0.7 mm 16 mps 751 mmHg 61%
    01:00 +16°C° 0.7 mm 17 mps 751 mmHg 62%
    02:00 +16°C° 0.7 mm 17 mps 750 mmHg 64%
    03:00 +16°C° 1.2 mm 17 mps 750 mmHg 64%
    04:00 +16°C° 1.2 mm 17 mps 749 mmHg 64%
    05:00 +16°C° 1.2 mm 18 mps 749 mmHg 64%
    06:00 +16°C° 1.9 mm 18 mps 748 mmHg 65%
    07:00 +16°C° 1.9 mm 18 mps 748 mmHg 66%
    08:00 +16°C° 1.9 mm 18 mps 747 mmHg 67%
    09:00 +16°C° 3.1 mm 17 mps 747 mmHg 67%
    10:00 +16°C° 3.1 mm 17 mps 747 mmHg 67%
    11:00 +16°C° 3.1 mm 16 mps 747 mmHg 68%
    12:00 +18°C° 3 mm 16 mps 746 mmHg 65%
    13:00 +19°C° 3 mm 15 mps 746 mmHg 62%
    14:00 +20°C° 3 mm 14 mps 746 mmHg 59%
    15:00 +20°C° 2.9 mm 14 mps 745 mmHg 61%
    16:00 +20°C° 2.9 mm 13 mps 745 mmHg 62%
    17:00 +19°C° 2.9 mm 13 mps 745 mmHg 64%
    18:00 +19°C° 2.2 mm 12 mps 745 mmHg 65%
    19:00 +19°C° 2.2 mm 12 mps 745 mmHg 67%
    20:00 +19°C° 2.2 mm 11 mps 745 mmHg 68%
    21:00 +18°C° 1.4 mm 11 mps 745 mmHg 69%
    22:00 +18°C° 1.4 mm 10 mps 745 mmHg 70%
    23:00 +18°C° 1.4 mm 9 mps 745 mmHg 71%
    Show more